Year,Month,Day,Hour,Minute,Value (Times are PST for temperature in C)
2010,07,07,00,00,15.00
2010,07,07,00,01,15.00
2010,07,07,00,02,15.00
2010,07,07,00,03,15.00
2010,07,07,00,04,14.90
2010,07,07,00,05,14.90
2010,07,07,00,06,14.90
2010,07,07,00,07,14.90
2010,07,07,00,08,14.90
2010,07,07,00,09,14.80
2010,07,07,00,10,14.80
2010,07,07,00,11,14.80
2010,07,07,00,12,14.80
2010,07,07,00,13,14.80
2010,07,07,00,14,14.70
2010,07,07,00,15,14.70
2010,07,07,00,16,14.70
2010,07,07,00,17,14.70
2010,07,07,00,18,14.70
2010,07,07,00,19,14.70
2010,07,07,00,20,14.60
2010,07,07,00,21,14.60
2010,07,07,00,22,14.60
2010,07,07,00,23,14.60
2010,07,07,00,24,14.60
2010,07,07,00,25,14.60
2010,07,07,00,26,14.60
2010,07,07,00,27,14.60
2010,07,07,00,28,14.50
2010,07,07,00,29,14.50
2010,07,07,00,30,14.50
2010,07,07,00,31,14.50
2010,07,07,00,32,14.40
2010,07,07,00,33,14.40
2010,07,07,00,34,14.40
2010,07,07,00,35,14.40
2010,07,07,00,36,14.40
2010,07,07,00,37,14.40
2010,07,07,00,38,14.40
2010,07,07,00,39,14.30
2010,07,07,00,40,14.30
2010,07,07,00,41,14.30
2010,07,07,00,42,14.30
2010,07,07,00,43,14.30
2010,07,07,00,44,14.30
2010,07,07,00,45,14.30
2010,07,07,00,46,14.30
2010,07,07,00,47,14.30
2010,07,07,00,48,14.30
2010,07,07,00,49,14.30
2010,07,07,00,50,14.30
2010,07,07,00,51,14.30
2010,07,07,00,52,14.20
2010,07,07,00,53,14.20
2010,07,07,00,54,14.20
2010,07,07,00,55,14.20
2010,07,07,00,56,14.20
2010,07,07,00,57,14.20
2010,07,07,00,58,14.20
2010,07,07,00,59,14.20
2010,07,07,01,00,14.20
2010,07,07,01,01,14.20
2010,07,07,01,02,14.20
2010,07,07,01,03,14.20
2010,07,07,01,04,14.20
2010,07,07,01,05,14.20
2010,07,07,01,06,14.20
2010,07,07,01,07,14.20
2010,07,07,01,08,14.20
2010,07,07,01,09,14.20
2010,07,07,01,10,14.20
2010,07,07,01,11,14.20
2010,07,07,01,12,14.20
2010,07,07,01,13,14.10
2010,07,07,01,14,14.10
2010,07,07,01,15,14.10
2010,07,07,01,16,14.10
2010,07,07,01,17,14.10
2010,07,07,01,18,14.10
2010,07,07,01,19,14.10
2010,07,07,01,20,14.10
2010,07,07,01,21,14.10
2010,07,07,01,22,14.10
2010,07,07,01,23,14.10
2010,07,07,01,24,14.10
2010,07,07,01,25,14.10
2010,07,07,01,26,14.00
2010,07,07,01,27,14.00
2010,07,07,01,28,14.00
2010,07,07,01,29,14.00
2010,07,07,01,30,14.00
2010,07,07,01,31,14.00
2010,07,07,01,32,14.00
2010,07,07,01,33,14.00
2010,07,07,01,34,13.90
2010,07,07,01,35,13.90
2010,07,07,01,36,13.90
2010,07,07,01,37,13.90
2010,07,07,01,38,13.90
2010,07,07,01,39,13.90
2010,07,07,01,40,13.90
2010,07,07,01,41,13.90
2010,07,07,01,42,13.80
2010,07,07,01,43,13.80
2010,07,07,01,44,13.80
2010,07,07,01,45,13.80
2010,07,07,01,46,13.80
2010,07,07,01,47,13.80
2010,07,07,01,48,13.80
2010,07,07,01,49,13.80
2010,07,07,01,50,13.80
2010,07,07,01,51,13.80
2010,07,07,01,52,13.80
2010,07,07,01,53,13.80
2010,07,07,01,54,13.80
2010,07,07,01,55,13.80
2010,07,07,01,56,13.80
2010,07,07,01,57,13.80
2010,07,07,01,58,13.80
2010,07,07,01,59,13.80
2010,07,07,02,00,13.80
2010,07,07,02,01,13.80
2010,07,07,02,02,13.80
2010,07,07,02,03,13.80
2010,07,07,02,04,13.80
2010,07,07,02,05,13.70
2010,07,07,02,06,13.70
2010,07,07,02,07,13.70
2010,07,07,02,08,13.70
2010,07,07,02,09,13.70
2010,07,07,02,10,13.70
2010,07,07,02,11,13.70
2010,07,07,02,12,13.70
2010,07,07,02,13,13.70
2010,07,07,02,14,13.70
2010,07,07,02,15,13.70
2010,07,07,02,16,13.70
2010,07,07,02,17,13.70
2010,07,07,02,18,13.70
2010,07,07,02,19,13.70
2010,07,07,02,20,13.60
2010,07,07,02,21,13.60
2010,07,07,02,22,13.60
2010,07,07,02,23,13.60
2010,07,07,02,24,13.60
2010,07,07,02,25,13.60
2010,07,07,02,26,13.60
2010,07,07,02,27,13.60
2010,07,07,02,28,13.70
2010,07,07,02,29,13.70
2010,07,07,02,30,13.70
2010,07,07,02,31,13.70
2010,07,07,02,32,13.60
2010,07,07,02,33,13.60
2010,07,07,02,34,13.70
2010,07,07,02,35,13.60
2010,07,07,02,36,13.60
2010,07,07,02,37,13.60
2010,07,07,02,38,13.60
2010,07,07,02,39,13.60
2010,07,07,02,40,13.60
2010,07,07,02,41,13.60
2010,07,07,02,42,13.60
2010,07,07,02,43,13.60
2010,07,07,02,44,13.60
2010,07,07,02,45,13.60
2010,07,07,02,46,13.60
2010,07,07,02,47,13.60
2010,07,07,02,48,13.70
2010,07,07,02,49,13.70
2010,07,07,02,50,13.70
2010,07,07,02,51,13.70
2010,07,07,02,52,13.70
2010,07,07,02,53,13.70
2010,07,07,02,54,13.70
2010,07,07,02,55,13.70
2010,07,07,02,56,13.70
2010,07,07,02,57,13.70
2010,07,07,02,58,13.70
2010,07,07,02,59,13.70
2010,07,07,03,00,13.70
2010,07,07,03,01,13.70
2010,07,07,03,02,13.70
2010,07,07,03,03,13.70
2010,07,07,03,04,13.70
2010,07,07,03,05,13.70
2010,07,07,03,06,13.70
2010,07,07,03,07,13.70
2010,07,07,03,08,13.70
2010,07,07,03,09,13.60
2010,07,07,03,10,13.60
2010,07,07,03,11,13.60
2010,07,07,03,12,13.60
2010,07,07,03,13,13.60
2010,07,07,03,14,13.60
2010,07,07,03,15,13.60
2010,07,07,03,16,13.60
2010,07,07,03,17,13.60
2010,07,07,03,18,13.50
2010,07,07,03,19,13.50
2010,07,07,03,20,13.50
2010,07,07,03,21,13.50
2010,07,07,03,22,13.50
2010,07,07,03,23,13.50
2010,07,07,03,24,13.50
2010,07,07,03,25,13.50
2010,07,07,03,26,13.40
2010,07,07,03,27,13.40
2010,07,07,03,28,13.40
2010,07,07,03,29,13.40
2010,07,07,03,30,13.40
2010,07,07,03,31,13.40
2010,07,07,03,32,13.40
2010,07,07,03,33,13.30
2010,07,07,03,34,13.30
2010,07,07,03,35,13.30
2010,07,07,03,36,13.30
2010,07,07,03,37,13.30
2010,07,07,03,38,13.30
2010,07,07,03,39,13.30
2010,07,07,03,40,13.30
2010,07,07,03,41,13.20
2010,07,07,03,42,13.20
2010,07,07,03,43,13.20
2010,07,07,03,44,13.20
2010,07,07,03,45,13.20
2010,07,07,03,46,13.20
2010,07,07,03,47,13.20
2010,07,07,03,48,13.20
2010,07,07,03,49,13.20
2010,07,07,03,50,13.10
2010,07,07,03,51,13.10
2010,07,07,03,52,13.10
2010,07,07,03,53,13.10
2010,07,07,03,54,13.10
2010,07,07,03,55,13.10
2010,07,07,03,56,13.10
2010,07,07,03,57,13.10
2010,07,07,03,58,13.10
2010,07,07,03,59,13.10
2010,07,07,04,00,13.10
2010,07,07,04,01,13.10
2010,07,07,04,02,13.10
2010,07,07,04,03,13.10
2010,07,07,04,04,13.10
2010,07,07,04,05,13.10
2010,07,07,04,06,13.10
2010,07,07,04,07,13.10
2010,07,07,04,08,13.10
2010,07,07,04,09,13.10
2010,07,07,04,10,13.10
2010,07,07,04,11,13.10
2010,07,07,04,12,13.10
2010,07,07,04,13,13.10
2010,07,07,04,14,13.10
2010,07,07,04,15,13.10
2010,07,07,04,16,13.10
2010,07,07,04,17,13.10
2010,07,07,04,18,13.00
2010,07,07,04,19,13.00
2010,07,07,04,20,13.00
2010,07,07,04,21,13.00
2010,07,07,04,22,13.00
2010,07,07,04,23,12.90
2010,07,07,04,24,12.90
2010,07,07,04,25,12.90
2010,07,07,04,26,12.90
2010,07,07,04,27,12.90
2010,07,07,04,28,12.90
2010,07,07,04,29,12.90
2010,07,07,04,30,12.90
2010,07,07,04,31,12.90
2010,07,07,04,32,12.90
2010,07,07,04,33,12.90
2010,07,07,04,34,12.90
2010,07,07,04,35,12.90
2010,07,07,04,36,12.90
2010,07,07,04,37,12.90
2010,07,07,04,38,12.90
2010,07,07,04,39,12.90
2010,07,07,04,40,12.90
2010,07,07,04,41,12.80
2010,07,07,04,42,12.80
2010,07,07,04,43,12.80
2010,07,07,04,44,12.80
2010,07,07,04,45,12.80
2010,07,07,04,46,12.80
2010,07,07,04,47,12.80
2010,07,07,04,48,12.80
2010,07,07,04,49,12.80
2010,07,07,04,50,12.80
2010,07,07,04,51,12.80
2010,07,07,04,52,12.80
2010,07,07,04,53,12.80
2010,07,07,04,54,12.80
2010,07,07,04,55,12.80
2010,07,07,04,56,12.80
2010,07,07,04,57,12.80
2010,07,07,04,58,12.80
2010,07,07,04,59,12.80
2010,07,07,05,00,12.80
2010,07,07,05,01,12.80
2010,07,07,05,02,12.80
2010,07,07,05,03,12.80
2010,07,07,05,04,12.80
2010,07,07,05,05,12.80
2010,07,07,05,06,12.90
2010,07,07,05,07,12.90
2010,07,07,05,08,12.90
2010,07,07,05,09,12.90
2010,07,07,05,10,12.90
2010,07,07,05,11,12.90
2010,07,07,05,12,13.00
2010,07,07,05,13,13.00
2010,07,07,05,14,13.10
2010,07,07,05,15,13.10
2010,07,07,05,16,13.20
2010,07,07,05,17,13.20
2010,07,07,05,18,13.20
2010,07,07,05,19,13.30
2010,07,07,05,20,13.30
2010,07,07,05,21,13.30
2010,07,07,05,22,13.40
2010,07,07,05,23,13.40
2010,07,07,05,24,13.50
2010,07,07,05,25,13.50
2010,07,07,05,26,13.60
2010,07,07,05,27,13.70
2010,07,07,05,28,13.70
2010,07,07,05,29,13.80
2010,07,07,05,30,13.80
2010,07,07,05,31,14.00
2010,07,07,05,32,14.10
2010,07,07,05,33,14.30
2010,07,07,05,34,14.30
2010,07,07,05,35,14.40
2010,07,07,05,36,14.50
2010,07,07,05,37,14.60
2010,07,07,05,38,14.70
2010,07,07,05,39,14.80
2010,07,07,05,40,14.80
2010,07,07,05,41,14.90
2010,07,07,05,42,15.00
2010,07,07,05,43,15.00
2010,07,07,05,44,15.10
2010,07,07,05,45,15.10
2010,07,07,05,46,15.20
2010,07,07,05,47,15.20
2010,07,07,05,48,15.20
2010,07,07,05,49,15.30
2010,07,07,05,50,15.30
2010,07,07,05,51,15.30
2010,07,07,05,52,15.30
2010,07,07,05,53,15.30
2010,07,07,05,54,15.40
2010,07,07,05,55,15.40
2010,07,07,05,56,15.40
2010,07,07,05,57,15.40
2010,07,07,05,58,15.40
2010,07,07,05,59,15.50
2010,07,07,06,00,15.50
2010,07,07,06,01,15.50
2010,07,07,06,02,15.50
2010,07,07,06,03,15.50
2010,07,07,06,04,15.50
2010,07,07,06,05,15.60
2010,07,07,06,06,15.60
2010,07,07,06,07,15.60
2010,07,07,06,08,15.60
2010,07,07,06,09,15.70
2010,07,07,06,10,15.70
2010,07,07,06,11,15.80
2010,07,07,06,12,15.80
2010,07,07,06,13,15.90
2010,07,07,06,14,16.00
2010,07,07,06,15,16.00
2010,07,07,06,16,16.10
2010,07,07,06,17,16.20
2010,07,07,06,18,16.20
2010,07,07,06,19,16.30
2010,07,07,06,20,16.40
2010,07,07,06,21,16.40
2010,07,07,06,22,16.50
2010,07,07,06,23,16.60
2010,07,07,06,24,16.60
2010,07,07,06,25,16.60
2010,07,07,06,26,16.60
2010,07,07,06,27,16.60
2010,07,07,06,28,16.70
2010,07,07,06,29,16.70
2010,07,07,06,30,16.70
2010,07,07,06,31,16.70
2010,07,07,06,32,16.70
2010,07,07,06,33,16.70
2010,07,07,06,34,16.70
2010,07,07,06,35,16.80
2010,07,07,06,36,16.80
2010,07,07,06,37,16.80
2010,07,07,06,38,16.90
2010,07,07,06,39,16.90
2010,07,07,06,40,17.00
2010,07,07,06,41,17.10
2010,07,07,06,42,17.10
2010,07,07,06,43,17.20
2010,07,07,06,44,17.30
2010,07,07,06,45,17.30
2010,07,07,06,46,17.30
2010,07,07,06,47,17.30
2010,07,07,06,48,17.40
2010,07,07,06,49,17.40
2010,07,07,06,50,17.50
2010,07,07,06,51,17.50
2010,07,07,06,52,17.60
2010,07,07,06,53,17.60
2010,07,07,06,54,17.70
2010,07,07,06,55,17.70
2010,07,07,06,56,17.70
2010,07,07,06,57,17.80
2010,07,07,06,58,17.80
2010,07,07,06,59,17.80
2010,07,07,07,00,17.80
2010,07,07,07,01,17.80
2010,07,07,07,02,17.90
2010,07,07,07,03,17.80
2010,07,07,07,04,17.80
2010,07,07,07,05,17.80
2010,07,07,07,06,17.80
2010,07,07,07,07,17.90
2010,07,07,07,08,17.90
2010,07,07,07,09,17.90
2010,07,07,07,10,17.90
2010,07,07,07,11,17.90
2010,07,07,07,12,18.00
2010,07,07,07,13,18.00
2010,07,07,07,14,18.00
2010,07,07,07,15,18.10
2010,07,07,07,16,18.10
2010,07,07,07,17,18.10
2010,07,07,07,18,18.20
2010,07,07,07,19,18.20
2010,07,07,07,20,18.20
2010,07,07,07,21,18.20
2010,07,07,07,22,18.30
2010,07,07,07,23,18.30
2010,07,07,07,24,18.30
2010,07,07,07,25,18.40
2010,07,07,07,26,18.40
2010,07,07,07,27,18.50
2010,07,07,07,28,18.50
2010,07,07,07,29,18.60
2010,07,07,07,30,18.60
2010,07,07,07,31,18.60
2010,07,07,07,32,18.60
2010,07,07,07,33,18.70
2010,07,07,07,34,18.70
2010,07,07,07,35,18.70
2010,07,07,07,36,18.70
2010,07,07,07,37,18.70
2010,07,07,07,38,18.70
2010,07,07,07,39,18.70
2010,07,07,07,40,18.70
2010,07,07,07,41,18.70
2010,07,07,07,42,18.70
2010,07,07,07,43,18.70
2010,07,07,07,44,18.80
2010,07,07,07,45,18.80
2010,07,07,07,46,18.80
2010,07,07,07,47,18.80
2010,07,07,07,48,18.90
2010,07,07,07,49,18.90
2010,07,07,07,50,19.00
2010,07,07,07,51,19.00
2010,07,07,07,52,19.10
2010,07,07,07,53,19.10
2010,07,07,07,54,19.10
2010,07,07,07,55,19.10
2010,07,07,07,56,19.10
2010,07,07,07,57,19.10
2010,07,07,07,58,19.10
2010,07,07,07,59,19.20
2010,07,07,08,00,19.20
2010,07,07,08,01,19.20
2010,07,07,08,02,19.20
2010,07,07,08,03,19.30
2010,07,07,08,04,19.30
2010,07,07,08,05,19.30
2010,07,07,08,06,19.30
2010,07,07,08,07,19.40
2010,07,07,08,08,19.40
2010,07,07,08,09,19.40
2010,07,07,08,10,19.40
2010,07,07,08,11,19.40
2010,07,07,08,12,19.40
2010,07,07,08,13,19.50
2010,07,07,08,14,19.50
2010,07,07,08,15,19.50
2010,07,07,08,16,19.60
2010,07,07,08,17,19.60
2010,07,07,08,18,19.60
2010,07,07,08,19,19.50
2010,07,07,08,20,19.60
2010,07,07,08,21,19.60
2010,07,07,08,22,19.60
2010,07,07,08,23,19.60
2010,07,07,08,24,19.60
2010,07,07,08,25,19.60
2010,07,07,08,26,19.60
2010,07,07,08,27,19.70
2010,07,07,08,28,19.70
2010,07,07,08,29,19.70
2010,07,07,08,30,19.70
2010,07,07,08,31,19.70
2010,07,07,08,32,19.70
2010,07,07,08,33,19.70
2010,07,07,08,34,19.70
2010,07,07,08,35,19.80
2010,07,07,08,36,19.80
2010,07,07,08,37,19.80
2010,07,07,08,38,19.90
2010,07,07,08,39,19.90
2010,07,07,08,40,19.90
2010,07,07,08,41,19.90
2010,07,07,08,42,19.90
2010,07,07,08,43,20.00
2010,07,07,08,44,20.00
2010,07,07,08,45,20.10
2010,07,07,08,46,20.10
2010,07,07,08,47,20.20
2010,07,07,08,48,20.20
2010,07,07,08,49,20.30
2010,07,07,08,50,20.30
2010,07,07,08,51,20.30
2010,07,07,08,52,20.30
2010,07,07,08,53,20.30
2010,07,07,08,54,20.30
2010,07,07,08,55,20.30
2010,07,07,08,56,20.30
2010,07,07,08,57,20.30
2010,07,07,08,58,20.30
2010,07,07,08,59,20.30
2010,07,07,09,00,20.40
2010,07,07,09,01,20.40
2010,07,07,09,02,20.40
2010,07,07,09,03,20.50
2010,07,07,09,04,20.50
2010,07,07,09,05,20.50
2010,07,07,09,06,20.50
2010,07,07,09,07,20.50
2010,07,07,09,08,20.50
2010,07,07,09,09,20.60
2010,07,07,09,10,20.60
2010,07,07,09,11,20.70
2010,07,07,09,12,20.70
2010,07,07,09,13,20.70
2010,07,07,09,14,20.70
2010,07,07,09,15,20.70
2010,07,07,09,16,20.70
2010,07,07,09,17,20.70
2010,07,07,09,18,20.80
2010,07,07,09,19,20.80
2010,07,07,09,20,20.90
2010,07,07,09,21,20.90
2010,07,07,09,22,20.90
2010,07,07,09,23,21.00
2010,07,07,09,24,21.10
2010,07,07,09,25,21.10
2010,07,07,09,26,21.20
2010,07,07,09,27,21.20
2010,07,07,09,28,21.20
2010,07,07,09,29,21.30
2010,07,07,09,30,21.30
2010,07,07,09,31,21.30
2010,07,07,09,32,21.30
2010,07,07,09,33,21.40
2010,07,07,09,34,21.40
2010,07,07,09,35,21.40
2010,07,07,09,36,21.50
2010,07,07,09,37,21.60
2010,07,07,09,38,21.50
2010,07,07,09,39,21.50
2010,07,07,09,40,21.40
2010,07,07,09,41,21.50
2010,07,07,09,42,21.50
2010,07,07,09,43,21.60
2010,07,07,09,44,21.60
2010,07,07,09,45,21.60
2010,07,07,09,46,21.60
2010,07,07,09,47,21.60
2010,07,07,09,48,21.60
2010,07,07,09,49,21.60
2010,07,07,09,50,21.60
2010,07,07,09,51,21.60
2010,07,07,09,52,21.70
2010,07,07,09,53,21.80
2010,07,07,09,54,21.80
2010,07,07,09,55,21.80
2010,07,07,09,56,21.80
2010,07,07,09,57,21.80
2010,07,07,09,58,21.80
2010,07,07,09,59,21.80
2010,07,07,10,00,21.80
2010,07,07,10,01,21.80
2010,07,07,10,02,21.80
2010,07,07,10,03,21.80
2010,07,07,10,04,21.80
2010,07,07,10,05,21.80
2010,07,07,10,06,21.80
2010,07,07,10,07,21.80
2010,07,07,10,08,21.80
2010,07,07,10,09,21.80
2010,07,07,10,10,21.80
2010,07,07,10,11,21.80
2010,07,07,10,12,21.90
2010,07,07,10,13,21.90
2010,07,07,10,14,22.00
2010,07,07,10,15,22.00
2010,07,07,10,16,21.90
2010,07,07,10,17,21.90
2010,07,07,10,18,21.90
2010,07,07,10,19,21.90
2010,07,07,10,20,21.90
2010,07,07,10,21,22.00
2010,07,07,10,22,22.00
2010,07,07,10,23,22.00
2010,07,07,10,24,22.00
2010,07,07,10,25,22.00
2010,07,07,10,26,22.00
2010,07,07,10,27,22.10
2010,07,07,10,28,22.20
2010,07,07,10,29,22.20
2010,07,07,10,30,22.20
2010,07,07,10,31,22.20
2010,07,07,10,32,22.20
2010,07,07,10,33,22.20
2010,07,07,10,34,22.20
2010,07,07,10,35,22.20
2010,07,07,10,36,22.30
2010,07,07,10,37,22.30
2010,07,07,10,38,22.40
2010,07,07,10,39,22.40
2010,07,07,10,40,22.40
2010,07,07,10,41,22.50
2010,07,07,10,42,22.50
2010,07,07,10,43,22.40
2010,07,07,10,44,22.40
2010,07,07,10,45,22.40
2010,07,07,10,46,22.50
2010,07,07,10,47,22.60
2010,07,07,10,48,22.70
2010,07,07,10,49,22.70
2010,07,07,10,50,22.70
2010,07,07,10,51,22.80
2010,07,07,10,52,22.80
2010,07,07,10,53,22.80
2010,07,07,10,54,22.80
2010,07,07,10,55,22.80
2010,07,07,10,56,22.80
2010,07,07,10,57,22.80
2010,07,07,10,58,22.80
2010,07,07,10,59,22.80
2010,07,07,11,00,22.80
2010,07,07,11,01,22.80
2010,07,07,11,02,22.80
2010,07,07,11,03,22.80
2010,07,07,11,04,22.90
2010,07,07,11,05,22.90
2010,07,07,11,06,22.90
2010,07,07,11,07,22.90
2010,07,07,11,08,22.90
2010,07,07,11,09,23.00
2010,07,07,11,10,23.00
2010,07,07,11,11,22.90
2010,07,07,11,12,22.90
2010,07,07,11,13,22.90
2010,07,07,11,14,23.00
2010,07,07,11,15,23.10
2010,07,07,11,16,23.10
2010,07,07,11,17,23.20
2010,07,07,11,18,23.20
2010,07,07,11,19,23.20
2010,07,07,11,20,23.30
2010,07,07,11,21,23.40
2010,07,07,11,22,23.40
2010,07,07,11,23,23.50
2010,07,07,11,24,23.40
2010,07,07,11,25,23.50
2010,07,07,11,26,23.50
2010,07,07,11,27,23.60
2010,07,07,11,28,23.70
2010,07,07,11,29,23.70
2010,07,07,11,30,23.70
2010,07,07,11,31,23.70
2010,07,07,11,32,23.80
2010,07,07,11,33,23.90
2010,07,07,11,34,23.90
2010,07,07,11,35,23.90
2010,07,07,11,36,23.90
2010,07,07,11,37,24.00
2010,07,07,11,38,24.10
2010,07,07,11,39,24.10
2010,07,07,11,40,24.20
2010,07,07,11,41,24.20
2010,07,07,11,42,24.10
2010,07,07,11,43,24.00
2010,07,07,11,44,23.90
2010,07,07,11,45,24.00
2010,07,07,11,46,24.00
2010,07,07,11,47,24.10
2010,07,07,11,48,24.20
2010,07,07,11,49,24.20
2010,07,07,11,50,24.20
2010,07,07,11,51,24.30
2010,07,07,11,52,24.30
2010,07,07,11,53,24.30
2010,07,07,11,54,24.50
2010,07,07,11,55,24.50
2010,07,07,11,56,24.50
2010,07,07,11,57,24.50
2010,07,07,11,58,24.50
2010,07,07,11,59,24.50
2010,07,07,12,00,24.50
2010,07,07,12,01,24.60
2010,07,07,12,02,24.70
2010,07,07,12,03,24.70
2010,07,07,12,04,24.70
2010,07,07,12,05,24.70
2010,07,07,12,06,24.80
2010,07,07,12,07,24.90
2010,07,07,12,08,24.90
2010,07,07,12,09,24.90
2010,07,07,12,10,24.90
2010,07,07,12,11,24.80
2010,07,07,12,12,24.80
2010,07,07,12,13,24.80
2010,07,07,12,14,24.90
2010,07,07,12,15,24.90
2010,07,07,12,16,24.90
2010,07,07,12,17,24.90
2010,07,07,12,18,25.00
2010,07,07,12,19,25.00
2010,07,07,12,20,25.00
2010,07,07,12,21,25.00
2010,07,07,12,22,25.00
2010,07,07,12,23,25.00
2010,07,07,12,24,25.00
2010,07,07,12,25,24.90
2010,07,07,12,26,24.90
2010,07,07,12,27,25.00
2010,07,07,12,28,25.10
2010,07,07,12,29,25.20
2010,07,07,12,30,25.20
2010,07,07,12,31,25.20
2010,07,07,12,32,25.20
2010,07,07,12,33,25.20
2010,07,07,12,34,25.30
2010,07,07,12,35,25.30
2010,07,07,12,36,25.30
2010,07,07,12,37,25.20
2010,07,07,12,38,25.20
2010,07,07,12,39,25.20
2010,07,07,12,40,25.30
2010,07,07,12,41,25.30
2010,07,07,12,42,25.30
2010,07,07,12,43,25.30
2010,07,07,12,44,25.30
2010,07,07,12,45,25.30
2010,07,07,12,46,25.30
2010,07,07,12,47,25.20
2010,07,07,12,48,25.20
2010,07,07,12,49,25.20
2010,07,07,12,50,25.20
2010,07,07,12,51,25.20
2010,07,07,12,52,25.20
2010,07,07,12,53,25.20
2010,07,07,12,54,25.30
2010,07,07,12,55,25.30
2010,07,07,12,56,25.30
2010,07,07,12,57,25.30
2010,07,07,12,58,25.30
2010,07,07,12,59,25.30
2010,07,07,13,00,25.30
2010,07,07,13,01,25.40
2010,07,07,13,02,25.50
2010,07,07,13,03,25.50
2010,07,07,13,04,25.50
2010,07,07,13,05,25.50
2010,07,07,13,06,25.60
2010,07,07,13,07,25.60
2010,07,07,13,08,25.50
2010,07,07,13,09,25.40
2010,07,07,13,10,25.50
2010,07,07,13,11,25.50
2010,07,07,13,12,25.60
2010,07,07,13,13,25.60
2010,07,07,13,14,25.70
2010,07,07,13,15,25.80
2010,07,07,13,16,25.90
2010,07,07,13,17,25.90
2010,07,07,13,18,25.90
2010,07,07,13,19,25.80
2010,07,07,13,20,25.80
2010,07,07,13,21,25.80
2010,07,07,13,22,25.80
2010,07,07,13,23,25.80
2010,07,07,13,24,25.70
2010,07,07,13,25,25.70
2010,07,07,13,26,25.70
2010,07,07,13,27,25.60
2010,07,07,13,28,25.60
2010,07,07,13,29,25.60
2010,07,07,13,30,25.60
2010,07,07,13,31,25.60
2010,07,07,13,32,25.60
2010,07,07,13,33,25.50
2010,07,07,13,34,25.50
2010,07,07,13,35,25.60
2010,07,07,13,36,25.60
2010,07,07,13,37,25.70
2010,07,07,13,38,25.70
2010,07,07,13,39,25.70
2010,07,07,13,40,25.70
2010,07,07,13,41,25.80
2010,07,07,13,42,25.80
2010,07,07,13,43,25.90
2010,07,07,13,44,25.90
2010,07,07,13,45,25.80
2010,07,07,13,46,25.80
2010,07,07,13,47,25.90
2010,07,07,13,48,25.90
2010,07,07,13,49,25.90
2010,07,07,13,50,25.90
2010,07,07,13,51,26.00
2010,07,07,13,52,26.10
2010,07,07,13,53,26.20
2010,07,07,13,54,26.30
2010,07,07,13,55,26.40
2010,07,07,13,56,26.50
2010,07,07,13,57,26.60
2010,07,07,13,58,26.60
2010,07,07,13,59,26.60
2010,07,07,14,00,26.60
2010,07,07,14,01,26.60
2010,07,07,14,02,26.60
2010,07,07,14,03,26.60
2010,07,07,14,04,26.60
2010,07,07,14,05,26.50
2010,07,07,14,06,26.50
2010,07,07,14,07,26.40
2010,07,07,14,08,26.40
2010,07,07,14,09,26.40
2010,07,07,14,10,26.50
2010,07,07,14,11,26.60
2010,07,07,14,12,26.70
2010,07,07,14,13,26.70
2010,07,07,14,14,26.80
2010,07,07,14,15,26.80
2010,07,07,14,16,26.80
2010,07,07,14,17,26.90
2010,07,07,14,18,27.00
2010,07,07,14,19,27.00
2010,07,07,14,20,27.10
2010,07,07,14,21,27.20
2010,07,07,14,22,27.20
2010,07,07,14,23,27.20
2010,07,07,14,24,27.30
2010,07,07,14,25,27.30
2010,07,07,14,26,27.40
2010,07,07,14,27,27.40
2010,07,07,14,28,27.40
2010,07,07,14,29,27.30
2010,07,07,14,30,27.30
2010,07,07,14,31,27.40
2010,07,07,14,32,27.40
2010,07,07,14,33,27.40
2010,07,07,14,34,27.30
2010,07,07,14,35,27.30
2010,07,07,14,36,27.30
2010,07,07,14,37,27.40
2010,07,07,14,38,27.40
2010,07,07,14,39,27.50
2010,07,07,14,40,27.50
2010,07,07,14,41,27.50
2010,07,07,14,42,27.50
2010,07,07,14,43,27.60
2010,07,07,14,44,27.60
2010,07,07,14,45,27.50
2010,07,07,14,46,27.50
2010,07,07,14,47,27.50
2010,07,07,14,48,27.50
2010,07,07,14,49,27.60
2010,07,07,14,50,27.60
2010,07,07,14,51,27.70
2010,07,07,14,52,27.80
2010,07,07,14,53,27.90
2010,07,07,14,54,27.90
2010,07,07,14,55,27.90
2010,07,07,14,56,28.00
2010,07,07,14,57,28.00
2010,07,07,14,58,28.00
2010,07,07,14,59,28.00
2010,07,07,15,00,28.00
2010,07,07,15,01,28.00
2010,07,07,15,02,28.10
2010,07,07,15,03,28.10
2010,07,07,15,04,28.10
2010,07,07,15,05,28.10
2010,07,07,15,06,28.00
2010,07,07,15,07,28.00
2010,07,07,15,08,28.10
2010,07,07,15,09,28.10
2010,07,07,15,10,28.00
2010,07,07,15,11,28.00
2010,07,07,15,12,28.00
2010,07,07,15,13,28.00
2010,07,07,15,14,28.00
2010,07,07,15,15,27.90
2010,07,07,15,16,27.90
2010,07,07,15,17,28.00
2010,07,07,15,18,28.10
2010,07,07,15,19,28.10
2010,07,07,15,20,28.10
2010,07,07,15,21,28.20
2010,07,07,15,22,28.20
2010,07,07,15,23,28.30
2010,07,07,15,24,28.30
2010,07,07,15,25,28.30
2010,07,07,15,26,28.30
2010,07,07,15,27,28.30
2010,07,07,15,28,28.30
2010,07,07,15,29,28.30
2010,07,07,15,30,28.30
2010,07,07,15,31,28.30
2010,07,07,15,32,28.30
2010,07,07,15,33,28.20
2010,07,07,15,34,28.20
2010,07,07,15,35,28.20
2010,07,07,15,36,28.20
2010,07,07,15,37,28.20
2010,07,07,15,38,28.20
2010,07,07,15,39,28.30
2010,07,07,15,40,28.30
2010,07,07,15,41,28.30
2010,07,07,15,42,28.30
2010,07,07,15,43,28.30
2010,07,07,15,44,28.30
2010,07,07,15,45,28.30
2010,07,07,15,46,28.30
2010,07,07,15,47,28.30
2010,07,07,15,48,28.30
2010,07,07,15,49,28.20
2010,07,07,15,50,28.20
2010,07,07,15,51,28.20
2010,07,07,15,52,28.20
2010,07,07,15,53,28.30
2010,07,07,15,54,28.40
2010,07,07,15,55,28.40
2010,07,07,15,56,28.50
2010,07,07,15,57,28.50
2010,07,07,15,58,28.60
2010,07,07,15,59,28.60
2010,07,07,16,00,28.50
2010,07,07,16,01,28.50
2010,07,07,16,02,28.60
2010,07,07,16,03,28.70
2010,07,07,16,04,28.70
2010,07,07,16,05,28.80
2010,07,07,16,06,28.80
2010,07,07,16,07,28.80
2010,07,07,16,08,28.70
2010,07,07,16,09,28.70
2010,07,07,16,10,28.70
2010,07,07,16,11,28.70
2010,07,07,16,12,28.80
2010,07,07,16,13,28.80
2010,07,07,16,14,28.90
2010,07,07,16,15,28.90
2010,07,07,16,16,28.90
2010,07,07,16,17,28.80
2010,07,07,16,18,28.80
2010,07,07,16,19,28.80
2010,07,07,16,20,28.70
2010,07,07,16,21,28.60
2010,07,07,16,22,28.50
2010,07,07,16,23,28.50
2010,07,07,16,24,28.60
2010,07,07,16,25,28.60
2010,07,07,16,26,28.70
2010,07,07,16,27,28.80
2010,07,07,16,28,28.80
2010,07,07,16,29,28.90
2010,07,07,16,30,28.90
2010,07,07,16,31,28.90
2010,07,07,16,32,28.90
2010,07,07,16,33,29.00
2010,07,07,16,34,29.00
2010,07,07,16,35,28.90
2010,07,07,16,36,28.80
2010,07,07,16,37,28.80
2010,07,07,16,38,28.80
2010,07,07,16,39,28.80
2010,07,07,16,40,28.80
2010,07,07,16,41,28.80
2010,07,07,16,42,28.90
2010,07,07,16,43,29.00
2010,07,07,16,44,29.00
2010,07,07,16,45,29.00
2010,07,07,16,46,29.00
2010,07,07,16,47,28.90
2010,07,07,16,48,28.90
2010,07,07,16,49,28.90
2010,07,07,16,50,28.90
2010,07,07,16,51,29.00
2010,07,07,16,52,29.00
2010,07,07,16,53,29.00
2010,07,07,16,54,28.90
2010,07,07,16,55,28.90
2010,07,07,16,56,28.90
2010,07,07,16,57,29.00
2010,07,07,16,58,29.10
2010,07,07,16,59,29.10
2010,07,07,17,00,29.10
2010,07,07,17,01,29.10
2010,07,07,17,02,29.10
2010,07,07,17,03,29.10
2010,07,07,17,04,29.10
2010,07,07,17,05,29.10
2010,07,07,17,06,29.10
2010,07,07,17,07,29.00
2010,07,07,17,08,29.00
2010,07,07,17,09,28.90
2010,07,07,17,10,28.90
2010,07,07,17,11,28.90
2010,07,07,17,12,28.90
2010,07,07,17,13,28.90
2010,07,07,17,14,28.90
2010,07,07,17,15,28.90
2010,07,07,17,16,28.90
2010,07,07,17,17,28.90
2010,07,07,17,18,28.90
2010,07,07,17,19,28.80